Time,TemperatureF,DewpointF,PressureIn,WindDirection,WindDirectionDegrees,WindSpeedMPH,WindSpeedGustMPH,Humidity,HourlyPrecipIn,Conditions,Clouds,dailyrainin,SoftwareType,DateUTC
2013-07-11 00:01:00,66.4,64.6,29.84,SSE,161,0.0,-999.0,94,0.00,,,0.00,Wunderground v.1.15,2013-07-11 04:01:00,
2013-07-11 00:02:00,66.4,64.6,29.84,SSE,161,0.0,-999.0,94,0.00,,,0.00,Wunderground v.1.15,2013-07-11 04:02:00,
2013-07-11 00:03:00,66.4,64.6,29.84,SSE,161,0.0,-999.0,94,0.00,,,0.00,Wunderground v.1.15,2013-07-11 04:03:00,
2013-07-11 00:04:00,66.4,64.6,29.84,SSE,161,0.0,-999.0,94,0.00,,,0.00,Wunderground v.1.15,2013-07-11 04:04:00,
2013-07-11 00:10:00,66.5,64.7,29.84,SSE,161,0.0,-999.0,94,0.00,,,0.00,Wunderground v.1.15,2013-07-11 04:10:00,
2013-07-11 00:12:00,66.5,64.7,29.84,SSE,161,0.0,-999.0,94,0.00,,,0.00,Wunderground v.1.15,2013-07-11 04:12:00,
2013-07-11 00:18:00,66.5,64.7,29.84,SSE,161,0.0,-999.0,94,0.00,,,0.00,Wunderground v.1.15,2013-07-11 04:18:00,
2013-07-11 00:24:00,66.6,64.8,29.84,SSE,161,0.0,-999.0,94,0.00,,,0.00,Wunderground v.1.15,2013-07-11 04:24:00,
2013-07-11 00:30:00,66.6,64.8,29.85,SSE,161,0.0,-999.0,94,0.00,,,0.00,Wunderground v.1.15,2013-07-11 04:30:00,
2013-07-11 00:36:00,66.6,64.8,29.84,SSE,161,0.0,-999.0,94,0.00,,,0.00,Wunderground v.1.15,2013-07-11 04:36:00,
2013-07-11 00:42:00,66.6,64.8,29.84,SSE,161,0.0,-999.0,94,0.00,,,0.00,Wunderground v.1.15,2013-07-11 04:42:00,
2013-07-11 00:48:00,66.6,64.8,29.84,SSE,161,0.0,-999.0,94,0.00,,,0.00,Wunderground v.1.15,2013-07-11 04:48:00,
2013-07-11 00:53:00,66.7,64.9,29.84,SSE,161,0.0,-999.0,94,0.00,,,0.00,Wunderground v.1.15,2013-07-11 04:53:00,
2013-07-11 00:59:00,66.6,64.8,29.84,SSE,161,0.0,-999.0,94,0.00,,,0.00,Wunderground v.1.15,2013-07-11 04:59:00,
2013-07-11 01:05:00,66.6,64.8,29.84,SSE,161,0.0,-999.0,94,0.00,,,0.00,Wunderground v.1.15,2013-07-11 05:05:00,
2013-07-11 01:11:00,66.6,64.8,29.84,SSE,161,0.0,-999.0,94,0.00,,,0.00,Wunderground v.1.15,2013-07-11 05:11:00,
2013-07-11 01:17:00,66.6,64.8,29.84,SSE,161,0.0,-999.0,94,0.00,,,0.00,Wunderground v.1.15,2013-07-11 05:17:00,
2013-07-11 01:23:00,66.5,64.7,29.84,SSE,161,0.0,-999.0,94,0.00,,,0.00,Wunderground v.1.15,2013-07-11 05:23:00,
2013-07-11 01:29:00,66.6,64.8,29.84,SSE,161,0.0,-999.0,94,0.00,,,0.00,Wunderground v.1.15,2013-07-11 05:29:00,
2013-07-11 01:34:00,66.5,64.7,29.84,SSE,161,0.0,-999.0,94,0.00,,,0.00,Wunderground v.1.15,2013-07-11 05:34:00,
2013-07-11 01:40:00,66.5,64.7,29.84,SSE,161,0.0,-999.0,94,0.00,,,0.00,Wunderground v.1.15,2013-07-11 05:40:00,
2013-07-11 01:46:00,66.4,64.6,29.85,SSE,161,0.0,-999.0,94,0.00,,,0.00,Wunderground v.1.15,2013-07-11 05:46:00,
2013-07-11 01:52:00,66.3,64.5,29.84,SSE,161,0.0,-999.0,94,0.00,,,0.00,Wunderground v.1.15,2013-07-11 05:52:00,
2013-07-11 01:58:00,66.3,64.5,29.84,SSE,161,0.0,-999.0,94,0.00,,,0.00,Wunderground v.1.15,2013-07-11 05:58:00,
2013-07-11 02:04:00,66.3,64.5,29.84,SSE,161,0.0,-999.0,94,0.00,,,0.00,Wunderground v.1.15,2013-07-11 06:04:00,
2013-07-11 02:10:00,66.2,64.4,29.84,SSE,161,0.0,-999.0,94,0.00,,,0.00,Wunderground v.1.15,2013-07-11 06:10:00,
2013-07-11 02:15:00,66.1,64.3,29.84,SSE,161,0.0,-999.0,94,0.00,,,0.00,Wunderground v.1.15,2013-07-11 06:15:00,
2013-07-11 02:21:00,66.0,64.2,29.84,SSE,161,0.0,-999.0,94,0.00,,,0.00,Wunderground v.1.15,2013-07-11 06:21:00,
2013-07-11 02:27:00,65.9,64.1,29.85,SSE,161,0.0,-999.0,94,0.00,,,0.00,Wunderground v.1.15,2013-07-11 06:27:00,
2013-07-11 02:33:00,65.9,64.1,29.85,SSE,161,0.0,-999.0,94,0.00,,,0.00,Wunderground v.1.15,2013-07-11 06:33:00,
2013-07-11 02:38:00,65.9,64.1,29.84,SSE,161,0.0,-999.0,94,0.00,,,0.00,Wunderground v.1.15,2013-07-11 06:38:00,
2013-07-11 02:44:00,65.8,64.0,29.84,SSE,161,0.0,-999.0,94,0.00,,,0.00,Wunderground v.1.15,2013-07-11 06:44:00,
2013-07-11 02:50:00,65.8,64.0,29.84,SSE,161,0.0,-999.0,94,0.00,,,0.00,Wunderground v.1.15,2013-07-11 06:50:00,
2013-07-11 02:56:00,65.7,63.9,29.84,SSE,161,0.0,-999.0,94,0.00,,,0.00,Wunderground v.1.15,2013-07-11 06:56:00,
2013-07-11 03:01:00,65.6,63.8,29.84,SSE,161,0.0,-999.0,94,0.00,,,0.00,Wunderground v.1.15,2013-07-11 07:01:00,
2013-07-11 03:07:00,65.5,63.7,29.84,SSE,161,0.0,-999.0,94,0.00,,,0.00,Wunderground v.1.15,2013-07-11 07:07:00,
2013-07-11 03:13:00,65.5,63.7,29.85,SSE,161,0.0,-999.0,94,0.00,,,0.00,Wunderground v.1.15,2013-07-11 07:13:00,
2013-07-11 03:19:00,65.6,63.8,29.85,SSE,161,0.0,-999.0,94,0.00,,,0.00,Wunderground v.1.15,2013-07-11 07:19:00,
2013-07-11 03:25:00,65.8,64.0,29.85,SSE,161,0.0,-999.0,94,0.00,,,0.00,Wunderground v.1.15,2013-07-11 07:25:00,
2013-07-11 03:31:00,65.8,64.0,29.85,SSE,161,0.0,-999.0,94,0.00,,,0.00,Wunderground v.1.15,2013-07-11 07:31:00,
2013-07-11 03:37:00,65.8,64.0,29.85,SSE,161,0.0,-999.0,94,0.00,,,0.00,Wunderground v.1.15,2013-07-11 07:37:00,
2013-07-11 03:42:00,65.8,64.0,29.84,SSE,161,0.0,-999.0,94,0.00,,,0.00,Wunderground v.1.15,2013-07-11 07:42:00,
2013-07-11 03:48:00,65.8,64.0,29.85,SSE,161,0.0,-999.0,94,0.00,,,0.00,Wunderground v.1.15,2013-07-11 07:48:00,
2013-07-11 03:54:00,65.8,64.0,29.85,SSE,161,0.0,-999.0,94,0.00,,,0.00,Wunderground v.1.15,2013-07-11 07:54:00,
2013-07-11 04:00:00,65.8,64.0,29.85,SSE,161,0.0,-999.0,94,0.00,,,0.00,Wunderground v.1.15,2013-07-11 08:00:00,
2013-07-11 04:06:00,65.7,63.9,29.85,SSE,161,0.0,-999.0,94,0.00,,,0.00,Wunderground v.1.15,2013-07-11 08:06:00,
2013-07-11 04:12:00,65.8,64.0,29.85,SSE,161,0.0,-999.0,94,0.00,,,0.00,Wunderground v.1.15,2013-07-11 08:12:00,
2013-07-11 04:18:00,65.8,64.0,29.85,SSE,161,0.0,-999.0,94,0.00,,,0.00,Wunderground v.1.15,2013-07-11 08:18:00,
2013-07-11 04:23:00,65.9,64.1,29.86,SSE,161,0.0,-999.0,94,0.00,,,0.00,Wunderground v.1.15,2013-07-11 08:23:00,
2013-07-11 04:29:00,65.9,64.1,29.86,SSE,161,0.0,-999.0,94,0.00,,,0.00,Wunderground v.1.15,2013-07-11 08:29:00,
2013-07-11 04:35:00,66.0,64.2,29.86,SSE,161,0.0,-999.0,94,0.00,,,0.00,Wunderground v.1.15,2013-07-11 08:35:00,
2013-07-11 04:41:00,66.1,64.3,29.86,SSE,161,0.0,-999.0,94,0.00,,,0.00,Wunderground v.1.15,2013-07-11 08:41:00,
2013-07-11 04:47:00,66.1,64.3,29.86,SSE,161,0.0,-999.0,94,0.00,,,0.00,Wunderground v.1.15,2013-07-11 08:47:00,
2013-07-11 04:53:00,66.1,64.3,29.86,SSE,161,0.0,-999.0,94,0.00,,,0.00,Wunderground v.1.15,2013-07-11 08:53:00,
2013-07-11 04:59:00,66.2,64.4,29.86,SSE,161,0.0,-999.0,94,0.00,,,0.00,Wunderground v.1.15,2013-07-11 08:59:00,
2013-07-11 05:05:00,66.2,64.4,29.86,SSE,161,0.0,-999.0,94,0.00,,,0.00,Wunderground v.1.15,2013-07-11 09:05:00,
2013-07-11 05:10:00,66.2,64.4,29.86,SSE,161,0.0,-999.0,94,0.00,,,0.00,Wunderground v.1.15,2013-07-11 09:10:00,
2013-07-11 05:16:00,66.2,64.4,29.86,SSE,161,0.0,-999.0,94,0.00,,,0.00,Wunderground v.1.15,2013-07-11 09:16:00,
2013-07-11 05:22:00,66.3,64.5,29.86,SSE,161,0.0,-999.0,94,0.00,,,0.00,Wunderground v.1.15,2013-07-11 09:22:00,
2013-07-11 05:28:00,66.3,64.5,29.86,SSE,161,0.0,-999.0,94,0.00,,,0.00,Wunderground v.1.15,2013-07-11 09:28:00,
2013-07-11 05:34:00,66.3,64.5,29.86,SSE,161,0.0,-999.0,94,0.00,,,0.00,Wunderground v.1.15,2013-07-11 09:34:00,
2013-07-11 05:40:00,66.4,64.6,29.86,SSE,161,0.0,-999.0,94,0.00,,,0.00,Wunderground v.1.15,2013-07-11 09:40:00,
2013-07-11 05:46:00,66.4,64.6,29.86,SSE,161,0.0,-999.0,94,0.00,,,0.00,Wunderground v.1.15,2013-07-11 09:46:00,
2013-07-11 05:52:00,66.5,64.7,29.86,SSE,161,0.0,-999.0,94,0.00,,,0.00,Wunderground v.1.15,2013-07-11 09:52:00,
2013-07-11 05:57:00,66.5,64.7,29.87,SSE,161,0.0,-999.0,94,0.00,,,0.00,Wunderground v.1.15,2013-07-11 09:57:00,
2013-07-11 06:03:00,66.5,64.7,29.87,SSE,161,0.0,-999.0,94,0.00,,,0.00,Wunderground v.1.15,2013-07-11 10:03:00,
2013-07-11 06:09:00,66.5,64.7,29.87,SSE,161,0.0,-999.0,94,0.00,,,0.00,Wunderground v.1.15,2013-07-11 10:09:00,
2013-07-11 06:15:00,66.6,64.8,29.88,SSE,161,0.0,-999.0,94,0.00,,,0.00,Wunderground v.1.15,2013-07-11 10:15:00,
2013-07-11 06:21:00,66.7,64.9,29.88,SSE,161,0.0,-999.0,94,0.00,,,0.00,Wunderground v.1.15,2013-07-11 10:21:00,
2013-07-11 06:27:00,66.7,65.2,29.88,SSE,161,0.0,-999.0,95,0.00,,,0.00,Wunderground v.1.15,2013-07-11 10:27:00,
2013-07-11 06:33:00,66.8,65.0,29.88,NW,317,0.0,-999.0,94,0.00,,,0.01,Wunderground v.1.15,2013-07-11 10:33:00,
2013-07-11 06:39:00,66.9,65.1,29.88,NW,317,0.0,-999.0,94,0.00,,,0.01,Wunderground v.1.15,2013-07-11 10:39:00,
2013-07-11 06:44:00,66.9,65.1,29.88,NW,317,0.0,-999.0,94,0.00,,,0.01,Wunderground v.1.15,2013-07-11 10:44:00,
2013-07-11 06:50:00,67.0,65.2,29.89,NW,322,0.0,-999.0,94,0.00,,,0.01,Wunderground v.1.15,2013-07-11 10:50:00,
2013-07-11 06:56:00,67.1,65.3,29.89,NW,322,0.0,-999.0,94,0.00,,,0.01,Wunderground v.1.15,2013-07-11 10:56:00,
2013-07-11 07:02:00,67.2,65.4,29.89,NW,322,0.0,-999.0,94,0.00,,,0.01,Wunderground v.1.15,2013-07-11 11:02:00,
2013-07-11 07:08:00,67.3,65.5,29.89,NW,323,0.0,-999.0,94,0.00,,,0.01,Wunderground v.1.15,2013-07-11 11:08:00,
2013-07-11 07:14:00,67.4,65.9,29.89,NW,323,0.0,-999.0,95,0.00,,,0.01,Wunderground v.1.15,2013-07-11 11:14:00,
2013-07-11 07:20:00,67.5,65.7,29.89,NW,323,0.0,-999.0,94,0.00,,,0.01,Wunderground v.1.15,2013-07-11 11:20:00,
2013-07-11 07:26:00,67.5,66.0,29.90,NE,55,0.0,-999.0,95,0.00,,,0.01,Wunderground v.1.15,2013-07-11 11:26:00,
2013-07-11 07:31:00,67.5,65.7,29.90,NE,36,0.0,-999.0,94,0.00,,,0.01,Wunderground v.1.15,2013-07-11 11:31:00,
2013-07-11 07:37:00,67.6,65.8,29.90,NE,46,0.0,-999.0,94,0.00,,,0.02,Wunderground v.1.15,2013-07-11 11:37:00,
2013-07-11 07:43:00,67.7,65.9,29.89,NE,46,0.0,-999.0,94,0.00,,,0.02,Wunderground v.1.15,2013-07-11 11:43:00,
2013-07-11 07:49:00,67.7,65.9,29.89,NE,46,0.0,-999.0,94,0.00,,,0.02,Wunderground v.1.15,2013-07-11 11:49:00,
2013-07-11 07:55:00,67.7,65.9,29.90,NE,46,0.0,-999.0,94,0.00,,,0.02,Wunderground v.1.15,2013-07-11 11:55:00,
2013-07-11 08:01:00,68.0,66.2,29.90,NE,46,0.0,-999.0,94,0.00,,,0.02,Wunderground v.1.15,2013-07-11 12:01:00,
2013-07-11 08:07:00,67.9,66.1,29.90,ENE,63,1.0,-999.0,94,0.00,,,0.02,Wunderground v.1.15,2013-07-11 12:07:00,
2013-07-11 08:12:00,67.7,65.6,29.90,NNE,19,1.0,-999.0,93,0.00,,,0.02,Wunderground v.1.15,2013-07-11 12:12:00,
2013-07-11 08:18:00,67.7,65.3,29.90,NE,36,1.0,-999.0,92,0.00,,,0.02,Wunderground v.1.15,2013-07-11 12:18:00,
2013-07-11 08:24:00,68.0,65.3,29.90,NE,51,1.0,-999.0,91,0.00,,,0.02,Wunderground v.1.15,2013-07-11 12:24:00,
2013-07-11 08:30:00,68.3,64.9,29.90,ENE,65,1.0,-999.0,89,0.00,,,0.02,Wunderground v.1.15,2013-07-11 12:30:00,
2013-07-11 08:36:00,68.5,64.5,29.91,ENE,57,2.0,-999.0,87,0.00,,,0.02,Wunderground v.1.15,2013-07-11 12:36:00,
2013-07-11 08:42:00,68.6,64.2,29.91,NNE,15,2.0,-999.0,86,0.00,,,0.02,Wunderground v.1.15,2013-07-11 12:42:00,
2013-07-11 08:48:00,68.5,63.8,29.91,NE,37,2.0,-999.0,85,0.00,,,0.02,Wunderground v.1.15,2013-07-11 12:48:00,
2013-07-11 08:53:00,68.5,63.8,29.91,ENE,58,1.0,-999.0,85,0.00,,,0.02,Wunderground v.1.15,2013-07-11 12:53:00,
2013-07-11 09:00:00,68.7,63.7,29.91,NE,50,1.0,-999.0,84,0.00,,,0.02,Wunderground v.1.15,2013-07-11 13:00:00,
2013-07-11 09:08:00,69.2,64.5,29.91,North,11,1.0,-999.0,85,0.00,,,0.02,Wunderground v.1.15,2013-07-11 13:08:00,
2013-07-11 09:14:00,69.7,64.3,29.91,ENE,61,1.0,-999.0,83,0.00,,,0.02,Wunderground v.1.15,2013-07-11 13:14:00,
2013-07-11 09:20:00,70.3,64.9,29.91,NE,54,1.0,-999.0,83,0.00,,,0.02,Wunderground v.1.15,2013-07-11 13:20:00,
2013-07-11 09:26:00,70.8,64.7,29.91,NE,40,1.0,-999.0,81,0.00,,,0.02,Wunderground v.1.15,2013-07-11 13:26:00,
2013-07-11 09:32:00,71.2,64.4,29.92,NNE,24,1.0,-999.0,79,0.00,,,0.02,Wunderground v.1.15,2013-07-11 13:32:00,
2013-07-11 09:38:00,71.6,63.6,29.92,ENE,67,1.0,-999.0,76,0.00,,,0.02,Wunderground v.1.15,2013-07-11 13:38:00,
2013-07-11 09:44:00,71.9,63.2,29.92,NNE,33,3.0,-999.0,74,0.00,,,0.02,Wunderground v.1.15,2013-07-11 13:44:00,
2013-07-11 09:50:00,71.6,63.3,29.92,NE,53,3.0,-999.0,75,0.00,,,0.02,Wunderground v.1.15,2013-07-11 13:50:00,
2013-07-11 09:56:00,71.8,63.8,29.92,ENE,63,2.0,-999.0,76,0.00,,,0.02,Wunderground v.1.15,2013-07-11 13:56:00,
2013-07-11 10:01:00,72.0,63.6,29.92,NE,51,1.0,-999.0,75,0.00,,,0.02,Wunderground v.1.15,2013-07-11 14:01:00,
2013-07-11 10:06:00,72.2,63.4,29.92,East,82,2.0,-999.0,74,0.00,,,0.02,Wunderground v.1.15,2013-07-11 14:06:00,
2013-07-11 10:11:00,72.5,64.5,29.92,NE,55,2.0,-999.0,76,0.00,,,0.02,Wunderground v.1.15,2013-07-11 14:11:00,
2013-07-11 10:17:00,72.6,64.6,29.92,North,360,2.0,-999.0,76,0.00,,,0.02,Wunderground v.1.15,2013-07-11 14:17:00,
2013-07-11 10:23:00,72.5,63.7,29.92,NE,46,2.0,-999.0,74,0.00,,,0.02,Wunderground v.1.15,2013-07-11 14:23:00,
2013-07-11 10:29:00,72.4,63.3,29.92,NE,40,2.0,-999.0,73,0.00,,,0.02,Wunderground v.1.15,2013-07-11 14:29:00,
2013-07-11 10:35:00,72.6,63.4,29.92,NNE,33,3.0,-999.0,73,0.00,,,0.02,Wunderground v.1.15,2013-07-11 14:35:00,
2013-07-11 10:41:00,72.8,62.8,29.92,NE,41,2.0,-999.0,71,0.00,,,0.02,Wunderground v.1.15,2013-07-11 14:41:00,
2013-07-11 10:47:00,72.9,62.9,29.92,NE,53,2.0,-999.0,71,0.00,,,0.02,Wunderground v.1.15,2013-07-11 14:47:00,
2013-07-11 10:53:00,73.0,62.6,29.93,NE,46,3.0,-999.0,70,0.00,,,0.02,Wunderground v.1.15,2013-07-11 14:53:00,
2013-07-11 10:59:00,73.2,64.4,29.93,NE,44,2.0,-999.0,74,0.00,,,0.02,Wunderground v.1.15,2013-07-11 14:59:00,
2013-07-11 11:05:00,73.1,63.1,29.93,North,5,2.0,-999.0,71,0.00,,,0.02,Wunderground v.1.15,2013-07-11 15:05:00,
2013-07-11 11:11:00,73.1,63.5,29.93,NNE,13,2.0,-999.0,72,0.00,,,0.02,Wunderground v.1.15,2013-07-11 15:11:00,
2013-07-11 11:16:00,73.5,65.1,29.93,ENE,60,1.0,-999.0,75,0.00,,,0.02,Wunderground v.1.15,2013-07-11 15:16:00,
2013-07-11 11:22:00,73.9,63.5,29.93,NE,41,2.0,-999.0,70,0.00,,,0.02,Wunderground v.1.15,2013-07-11 15:22:00,
2013-07-11 11:28:00,73.5,63.9,29.92,NE,37,3.0,-999.0,72,0.00,,,0.02,Wunderground v.1.15,2013-07-11 15:28:00,
2013-07-11 11:33:00,73.2,63.2,29.92,North,11,3.0,-999.0,71,0.00,,,0.02,Wunderground v.1.15,2013-07-11 15:33:00,
2013-07-11 11:39:00,72.9,63.3,29.92,East,82,3.0,-999.0,72,0.00,,,0.02,Wunderground v.1.15,2013-07-11 15:39:00,
2013-07-11 11:45:00,73.2,64.0,29.92,NE,53,3.0,-999.0,73,0.00,,,0.02,Wunderground v.1.15,2013-07-11 15:45:00,
2013-07-11 11:51:00,73.8,63.8,29.92,NE,40,2.0,-999.0,71,0.00,,,0.02,Wunderground v.1.15,2013-07-11 15:51:00,
2013-07-11 11:56:00,74.1,64.1,29.92,ENE,61,2.0,-999.0,71,0.00,,,0.02,Wunderground v.1.15,2013-07-11 15:56:00,
2013-07-11 12:01:00,74.6,64.2,29.92,NNE,31,2.0,-999.0,70,0.00,,,0.02,Wunderground v.1.15,2013-07-11 16:01:00,
2013-07-11 12:07:00,74.3,63.9,29.93,North,11,2.0,-999.0,70,0.00,,,0.02,Wunderground v.1.15,2013-07-11 16:07:00,
2013-07-11 12:13:00,74.0,63.2,29.92,ENE,57,2.0,-999.0,69,0.00,,,0.02,Wunderground v.1.15,2013-07-11 16:13:00,
2013-07-11 12:19:00,74.4,64.0,29.93,NNE,20,2.0,-999.0,70,0.00,,,0.02,Wunderground v.1.15,2013-07-11 16:19:00,
2013-07-11 12:25:00,74.9,64.0,29.92,NE,38,2.0,-999.0,69,0.00,,,0.02,Wunderground v.1.15,2013-07-11 16:25:00,
2013-07-11 12:31:00,75.2,63.5,29.93,NE,38,1.0,-999.0,67,0.00,,,0.02,Wunderground v.1.15,2013-07-11 16:31:00,
2013-07-11 12:36:00,75.0,64.1,29.93,NNE,17,1.0,-999.0,69,0.00,,,0.02,Wunderground v.1.15,2013-07-11 16:36:00,
2013-07-11 12:42:00,74.6,64.2,29.92,NNE,24,2.0,-999.0,70,0.00,,,0.02,Wunderground v.1.15,2013-07-11 16:42:00,
2013-07-11 12:48:00,74.3,63.9,29.92,North,9,1.0,-999.0,70,0.00,,,0.02,Wunderground v.1.15,2013-07-11 16:48:00,
2013-07-11 12:54:00,74.3,63.5,29.92,ENE,57,1.0,-999.0,69,0.00,,,0.02,Wunderground v.1.15,2013-07-11 16:54:00,
2013-07-11 13:00:00,74.5,63.7,29.92,ENE,58,1.0,-999.0,69,0.00,,,0.02,Wunderground v.1.15,2013-07-11 17:00:00,
2013-07-11 13:06:00,74.4,63.1,29.92,NE,53,0.0,-999.0,68,0.00,,,0.02,Wunderground v.1.15,2013-07-11 17:06:00,
2013-07-11 13:11:00,74.4,63.6,29.92,NE,36,1.0,-999.0,69,0.00,,,0.02,Wunderground v.1.15,2013-07-11 17:11:00,
2013-07-11 13:17:00,74.9,64.5,29.92,NNE,13,2.0,-999.0,70,0.00,,,0.02,Wunderground v.1.15,2013-07-11 17:17:00,
2013-07-11 13:23:00,75.0,64.1,29.92,North,11,2.0,-999.0,69,0.00,,,0.02,Wunderground v.1.15,2013-07-11 17:23:00,
2013-07-11 13:29:00,74.9,63.2,29.92,ENE,61,0.0,-999.0,67,0.00,,,0.02,Wunderground v.1.15,2013-07-11 17:29:00,
2013-07-11 13:34:00,75.3,64.4,29.92,NNE,18,1.0,-999.0,69,0.00,,,0.02,Wunderground v.1.15,2013-07-11 17:34:00,
2013-07-11 13:40:00,75.8,64.9,29.91,North,9,2.0,-999.0,69,0.00,,,0.02,Wunderground v.1.15,2013-07-11 17:40:00,
2013-07-11 13:46:00,76.2,64.4,29.91,NNE,32,2.0,-999.0,67,0.00,,,0.02,Wunderground v.1.15,2013-07-11 17:46:00,
2013-07-11 13:52:00,76.6,64.0,29.91,North,360,2.0,-999.0,65,0.00,,,0.02,Wunderground v.1.15,2013-07-11 17:52:00,
2013-07-11 13:59:00,76.5,63.0,29.91,NE,36,1.0,-999.0,63,0.00,,,0.02,Wunderground v.1.15,2013-07-11 17:59:00,
2013-07-11 14:05:00,76.3,63.7,29.91,NNE,17,2.0,-999.0,65,0.00,,,0.02,Wunderground v.1.15,2013-07-11 18:05:00,
2013-07-11 14:11:00,76.5,64.3,29.91,NW,304,2.0,-999.0,66,0.00,,,0.02,Wunderground v.1.15,2013-07-11 18:11:00,
2013-07-11 14:17:00,77.3,65.5,29.91,NNE,22,1.0,-999.0,67,0.00,,,0.02,Wunderground v.1.15,2013-07-11 18:17:00,
2013-07-11 14:23:00,77.9,64.7,29.91,North,11,1.0,-999.0,64,0.00,,,0.02,Wunderground v.1.15,2013-07-11 18:23:00,
2013-07-11 14:29:00,78.0,65.3,29.91,North,9,1.0,-999.0,65,0.00,,,0.02,Wunderground v.1.15,2013-07-11 18:29:00,
2013-07-11 14:35:00,77.9,64.3,29.91,NNE,13,2.0,-999.0,63,0.00,,,0.02,Wunderground v.1.15,2013-07-11 18:35:00,
2013-07-11 14:40:00,77.7,64.1,29.91,ENE,61,2.0,-999.0,63,0.00,,,0.02,Wunderground v.1.15,2013-07-11 18:40:00,
2013-07-11 14:46:00,76.9,63.8,29.91,NE,46,2.0,-999.0,64,0.00,,,0.02,Wunderground v.1.15,2013-07-11 18:46:00,
2013-07-11 14:51:00,76.3,65.0,29.91,NNE,26,2.0,-999.0,68,0.00,,,0.02,Wunderground v.1.15,2013-07-11 18:51:00,
2013-07-11 14:57:00,76.3,63.7,29.91,NNE,12,2.0,-999.0,65,0.00,,,0.02,Wunderground v.1.15,2013-07-11 18:57:00,
2013-07-11 15:02:00,76.6,65.2,29.91,NW,321,2.0,-999.0,68,0.00,,,0.02,Wunderground v.1.15,2013-07-11 19:02:00,
2013-07-11 15:07:00,77.0,64.8,29.91,North,11,1.0,-999.0,66,0.00,,,0.02,Wunderground v.1.15,2013-07-11 19:07:00,
2013-07-11 15:13:00,77.0,63.4,29.91,NNE,24,1.0,-999.0,63,0.00,,,0.02,Wunderground v.1.15,2013-07-11 19:13:00,
2013-07-11 15:18:00,76.7,63.6,29.91,North,5,1.0,-999.0,64,0.00,,,0.02,Wunderground v.1.15,2013-07-11 19:18:00,
2013-07-11 15:24:00,76.4,64.2,29.91,NNE,17,1.0,-999.0,66,0.00,,,0.02,Wunderground v.1.15,2013-07-11 19:24:00,
2013-07-11 15:30:00,76.0,62.5,29.91,NNE,22,3.0,-999.0,63,0.00,,,0.02,Wunderground v.1.15,2013-07-11 19:30:00,
2013-07-11 15:35:00,75.6,61.7,29.91,NNE,15,2.0,-999.0,62,0.00,,,0.02,Wunderground v.1.15,2013-07-11 19:35:00,
2013-07-11 15:40:00,75.5,62.9,29.91,NE,40,2.0,-999.0,65,0.00,,,0.02,Wunderground v.1.15,2013-07-11 19:40:00,
2013-07-11 15:46:00,76.2,63.1,29.90,NNE,14,1.0,-999.0,64,0.00,,,0.02,Wunderground v.1.15,2013-07-11 19:46:00,
2013-07-11 15:52:00,76.7,63.2,29.91,NNW,341,2.0,-999.0,63,0.00,,,0.02,Wunderground v.1.15,2013-07-11 19:52:00,
2013-07-11 15:58:00,76.8,62.8,29.91,NW,324,1.0,-999.0,62,0.00,,,0.02,Wunderground v.1.15,2013-07-11 19:58:00,
2013-07-11 16:04:00,76.9,62.9,29.91,North,5,2.0,-999.0,62,0.00,,,0.02,Wunderground v.1.15,2013-07-11 20:04:00,
2013-07-11 16:10:00,77.0,62.0,29.90,NE,38,3.0,-999.0,60,0.00,,,0.02,Wunderground v.1.15,2013-07-11 20:10:00,
2013-07-11 16:16:00,77.1,63.5,29.90,NNE,24,2.0,-999.0,63,0.00,,,0.02,Wunderground v.1.15,2013-07-11 20:16:00,
2013-07-11 16:22:00,77.3,64.2,29.90,NNE,15,2.0,-999.0,64,0.00,,,0.02,Wunderground v.1.15,2013-07-11 20:22:00,
2013-07-11 16:28:00,77.3,63.7,29.90,NNE,29,2.0,-999.0,63,0.00,,,0.02,Wunderground v.1.15,2013-07-11 20:28:00,
2013-07-11 16:34:00,77.1,63.1,29.91,NNE,17,3.0,-999.0,62,0.00,,,0.02,Wunderground v.1.15,2013-07-11 20:34:00,
2013-07-11 16:40:00,76.8,61.9,29.91,NW,319,3.0,-999.0,60,0.00,,,0.02,Wunderground v.1.15,2013-07-11 20:40:00,
2013-07-11 16:48:00,76.9,62.9,29.91,NNE,20,2.0,-999.0,62,0.00,,,0.02,Wunderground v.1.15,2013-07-11 20:48:00,
2013-07-11 16:54:00,76.7,62.2,29.91,NE,36,3.0,-999.0,61,0.00,,,0.02,Wunderground v.1.15,2013-07-11 20:54:00,
2013-07-11 17:00:00,76.5,61.1,29.90,WNW,300,2.0,-999.0,59,0.00,,,0.02,Wunderground v.1.15,2013-07-11 21:00:00,
2013-07-11 17:05:00,76.5,62.0,29.91,NNE,18,2.0,-999.0,61,0.00,,,0.02,Wunderground v.1.15,2013-07-11 21:05:00,
2013-07-11 17:11:00,76.4,61.0,29.91,North,351,2.0,-999.0,59,0.00,,,0.02,Wunderground v.1.15,2013-07-11 21:11:00,
2013-07-11 17:17:00,75.9,61.9,29.91,NNE,30,3.0,-999.0,62,0.00,,,0.02,Wunderground v.1.15,2013-07-11 21:17:00,
2013-07-11 17:23:00,75.6,60.3,29.91,NNE,24,3.0,-999.0,59,0.00,,,0.02,Wunderground v.1.15,2013-07-11 21:23:00,
2013-07-11 17:28:00,75.4,61.0,29.90,NNW,330,3.0,-999.0,61,0.00,,,0.02,Wunderground v.1.15,2013-07-11 21:28:00,
2013-07-11 17:34:00,75.4,60.5,29.90,North,360,3.0,-999.0,60,0.00,,,0.02,Wunderground v.1.15,2013-07-11 21:34:00,
2013-07-11 17:40:00,75.2,59.4,29.90,NNE,19,4.0,-999.0,58,0.00,,,0.02,Wunderground v.1.15,2013-07-11 21:40:00,
2013-07-11 17:46:00,75.1,60.7,29.90,NNW,347,4.0,-999.0,61,0.00,,,0.02,Wunderground v.1.15,2013-07-11 21:46:00,
2013-07-11 17:52:00,75.0,60.6,29.90,ENE,62,3.0,-999.0,61,0.00,,,0.02,Wunderground v.1.15,2013-07-11 21:52:00,
2013-07-11 17:58:00,75.1,61.2,29.90,NNE,24,2.0,-999.0,62,0.00,,,0.02,Wunderground v.1.15,2013-07-11 21:58:00,
2013-07-11 18:04:00,74.9,59.6,29.90,ENE,58,3.0,-999.0,59,0.00,,,0.02,Wunderground v.1.15,2013-07-11 22:04:00,
2013-07-11 18:10:00,74.9,60.1,29.90,NNE,28,3.0,-999.0,60,0.00,,,0.02,Wunderground v.1.15,2013-07-11 22:10:00,
2013-07-11 18:16:00,74.6,60.7,29.90,NNE,12,3.0,-999.0,62,0.00,,,0.02,Wunderground v.1.15,2013-07-11 22:16:00,
2013-07-11 18:22:00,74.4,61.0,29.91,NNE,28,2.0,-999.0,63,0.00,,,0.02,Wunderground v.1.15,2013-07-11 22:22:00,
2013-07-11 18:28:00,74.3,60.0,29.91,NNW,344,2.0,-999.0,61,0.00,,,0.02,Wunderground v.1.15,2013-07-11 22:28:00,
2013-07-11 18:34:00,73.9,60.1,29.91,NNE,13,3.0,-999.0,62,0.00,,,0.02,Wunderground v.1.15,2013-07-11 22:34:00,
2013-07-11 18:40:00,73.7,60.3,29.91,NNE,17,3.0,-999.0,63,0.00,,,0.02,Wunderground v.1.15,2013-07-11 22:40:00,
2013-07-11 18:45:00,73.6,60.2,29.91,NW,324,1.0,-999.0,63,0.00,,,0.02,Wunderground v.1.15,2013-07-11 22:45:00,
2013-07-11 18:51:00,73.6,60.2,29.92,NNE,22,1.0,-999.0,63,0.00,,,0.02,Wunderground v.1.15,2013-07-11 22:51:00,
2013-07-11 18:56:00,73.4,59.6,29.92,NNE,30,2.0,-999.0,62,0.00,,,0.02,Wunderground v.1.15,2013-07-11 22:56:00,
2013-07-11 19:03:00,73.1,59.3,29.92,North,360,2.0,-999.0,62,0.00,,,0.03,Wunderground v.1.15,2013-07-11 23:03:00,
2013-07-11 19:09:00,72.8,58.6,29.92,North,360,3.0,-999.0,61,0.00,,,0.03,Wunderground v.1.15,2013-07-11 23:09:00,
2013-07-11 19:15:00,72.5,58.7,29.92,North,5,3.0,-999.0,62,0.00,,,0.03,Wunderground v.1.15,2013-07-11 23:15:00,
2013-07-11 19:21:00,72.3,59.0,29.92,NNE,13,3.0,-999.0,63,0.00,,,0.03,Wunderground v.1.15,2013-07-11 23:21:00,
2013-07-11 19:27:00,72.2,59.8,29.92,North,360,3.0,-999.0,65,0.00,,,0.03,Wunderground v.1.15,2013-07-11 23:27:00,
2013-07-11 19:33:00,72.1,59.2,29.92,North,5,2.0,-999.0,64,0.00,,,0.03,Wunderground v.1.15,2013-07-11 23:33:00,
2013-07-11 19:39:00,71.8,58.5,29.92,NNE,19,2.0,-999.0,63,0.00,,,0.03,Wunderground v.1.15,2013-07-11 23:39:00,
2013-07-11 19:45:00,71.6,58.8,29.92,NNE,16,3.0,-999.0,64,0.00,,,0.03,Wunderground v.1.15,2013-07-11 23:45:00,
2013-07-11 19:51:00,71.5,58.7,29.92,NNE,13,2.0,-999.0,64,0.00,,,0.03,Wunderground v.1.15,2013-07-11 23:51:00,
2013-07-11 19:56:00,71.3,58.5,29.92,North,5,2.0,-999.0,64,0.00,,,0.03,Wunderground v.1.15,2013-07-11 23:56:00,
2013-07-11 20:01:00,71.1,58.7,29.92,North,5,2.0,-999.0,65,0.00,,,0.03,Wunderground v.1.15,2013-07-12 00:01:00,
2013-07-11 20:07:00,70.9,58.5,29.92,NNE,15,2.0,-999.0,65,0.00,,,0.03,Wunderground v.1.15,2013-07-12 00:07:00,
2013-07-11 20:13:00,70.7,58.8,29.92,NNE,13,2.0,-999.0,66,0.00,,,0.03,Wunderground v.1.15,2013-07-12 00:13:00,
2013-07-11 20:19:00,70.4,58.9,29.92,North,11,1.0,-999.0,67,0.00,,,0.03,Wunderground v.1.15,2013-07-12 00:19:00,
2013-07-11 20:25:00,70.0,59.0,29.92,NNE,15,1.0,-999.0,68,0.00,,,0.03,Wunderground v.1.15,2013-07-12 00:25:00,
2013-07-11 20:31:00,69.7,59.1,29.92,NNE,15,1.0,-999.0,69,0.00,,,0.03,Wunderground v.1.15,2013-07-12 00:31:00,
2013-07-11 20:37:00,69.4,59.2,29.92,NNE,15,0.0,-999.0,70,0.00,,,0.03,Wunderground v.1.15,2013-07-12 00:37:00,
2013-07-11 20:42:00,69.1,58.9,29.92,NNE,15,0.0,-999.0,70,0.00,,,0.03,Wunderground v.1.15,2013-07-12 00:42:00,
2013-07-11 20:48:00,68.7,58.5,29.92,NNE,17,0.0,-999.0,70,0.00,,,0.03,Wunderground v.1.15,2013-07-12 00:48:00,
2013-07-11 20:54:00,68.4,58.6,29.92,NNE,17,0.0,-999.0,71,0.00,,,0.03,Wunderground v.1.15,2013-07-12 00:54:00,
2013-07-11 21:04:00,67.8,58.4,29.92,NNE,17,0.0,-999.0,72,0.00,,,0.03,Wunderground v.1.15,2013-07-12 01:04:00,
2013-07-11 21:09:00,67.3,58.3,29.92,NNE,17,0.0,-999.0,73,0.00,,,0.03,Wunderground v.1.15,2013-07-12 01:09:00,
2013-07-11 21:15:00,66.8,58.2,29.92,NNE,17,0.0,-999.0,74,0.00,,,0.03,Wunderground v.1.15,2013-07-12 01:15:00,
2013-07-11 21:21:00,66.4,58.2,29.92,NNE,17,0.0,-999.0,75,0.00,,,0.03,Wunderground v.1.15,2013-07-12 01:21:00,
2013-07-11 21:28:00,65.8,58.0,29.92,NNE,17,0.0,-999.0,76,0.00,,,0.03,Wunderground v.1.15,2013-07-12 01:28:00,
2013-07-11 21:34:00,65.3,57.9,29.92,NNE,17,0.0,-999.0,77,0.00,,,0.03,Wunderground v.1.15,2013-07-12 01:34:00,
2013-07-11 21:40:00,64.9,58.2,29.93,NNE,17,0.0,-999.0,79,0.00,,,0.04,Wunderground v.1.15,2013-07-12 01:40:00,
2013-07-11 21:46:00,64.5,58.5,29.93,NNE,17,0.0,-999.0,81,0.00,,,0.04,Wunderground v.1.15,2013-07-12 01:46:00,
2013-07-11 21:52:00,64.1,58.5,29.93,NNE,17,0.0,-999.0,82,0.00,,,0.04,Wunderground v.1.15,2013-07-12 01:52:00,
2013-07-11 21:58:00,63.7,58.4,29.93,NNE,17,0.0,-999.0,83,0.00,,,0.04,Wunderground v.1.15,2013-07-12 01:58:00,
2013-07-11 22:03:00,63.3,58.0,29.93,NNE,17,0.0,-999.0,83,0.00,,,0.04,Wunderground v.1.15,2013-07-12 02:03:00,
2013-07-11 22:09:00,62.9,58.0,29.92,NNE,17,0.0,-999.0,84,0.00,,,0.04,Wunderground v.1.15,2013-07-12 02:09:00,
2013-07-11 22:15:00,62.5,57.6,29.93,NNE,17,0.0,-999.0,84,0.00,,,0.04,Wunderground v.1.15,2013-07-12 02:15:00,
2013-07-11 22:21:00,62.1,57.5,29.93,NNE,17,0.0,-999.0,85,0.00,,,0.04,Wunderground v.1.15,2013-07-12 02:21:00,
2013-07-11 22:27:00,61.8,57.6,29.93,NNE,17,0.0,-999.0,86,0.00,,,0.04,Wunderground v.1.15,2013-07-12 02:27:00,
2013-07-11 22:32:00,61.6,57.7,29.93,NNE,17,0.0,-999.0,87,0.00,,,0.04,Wunderground v.1.15,2013-07-12 02:32:00,
2013-07-11 22:37:00,61.5,57.9,29.93,NNE,17,0.0,-999.0,88,0.00,,,0.04,Wunderground v.1.15,2013-07-12 02:37:00,
2013-07-11 22:43:00,61.3,57.7,29.94,NNE,17,0.0,-999.0,88,0.00,,,0.04,Wunderground v.1.15,2013-07-12 02:43:00,
2013-07-11 22:48:00,61.2,57.6,29.94,NNE,17,0.0,-999.0,88,0.00,,,0.04,Wunderground v.1.15,2013-07-12 02:48:00,
2013-07-11 22:54:00,61.0,57.7,29.94,NNE,17,0.0,-999.0,89,0.00,,,0.04,Wunderground v.1.15,2013-07-12 02:54:00,
2013-07-11 23:00:00,60.8,57.5,29.94,NNE,17,0.0,-999.0,89,0.00,,,0.04,Wunderground v.1.15,2013-07-12 03:00:00,
2013-07-11 23:06:00,60.5,57.2,29.94,NNE,17,0.0,-999.0,89,0.00,,,0.04,Wunderground v.1.15,2013-07-12 03:06:00,
2013-07-11 23:12:00,60.3,57.4,29.94,NNE,17,0.0,-999.0,90,0.00,,,0.04,Wunderground v.1.15,2013-07-12 03:12:00,
2013-07-11 23:18:00,60.1,57.2,29.94,NNE,17,0.0,-999.0,90,0.00,,,0.04,Wunderground v.1.15,2013-07-12 03:18:00,
2013-07-11 23:24:00,59.9,57.0,29.94,NNE,17,0.0,-999.0,90,0.00,,,0.04,Wunderground v.1.15,2013-07-12 03:24:00,
2013-07-11 23:29:00,59.8,56.9,29.94,NNE,17,0.0,-999.0,90,0.00,,,0.04,Wunderground v.1.15,2013-07-12 03:29:00,
2013-07-11 23:35:00,59.8,57.2,29.94,NNE,17,0.0,-999.0,91,0.00,,,0.04,Wunderground v.1.15,2013-07-12 03:35:00,
2013-07-11 23:41:00,59.7,57.1,29.95,NNE,17,0.0,-999.0,91,0.00,,,0.04,Wunderground v.1.15,2013-07-12 03:41:00,
2013-07-11 23:47:00,59.5,56.9,29.95,NNE,17,0.0,-999.0,91,0.00,,,0.04,Wunderground v.1.15,2013-07-12 03:47:00,
2013-07-11 23:53:00,59.3,56.7,29.95,NNE,17,0.0,-999.0,91,0.00,,,0.04,Wunderground v.1.15,2013-07-12 03:53:00,
2013-07-11 23:59:00,59.1,56.5,29.95,NNE,17,0.0,-999.0,91,0.00,,,0.04,Wunderground v.1.15,2013-07-12 03:59:00,